Weather reports worldwide

Advertisment
Jaen, Spain (8417): temperature & dewpoint: 26.06.2020 07:00:00 - 02.07.2020 07:00:00 (CEST)Jaen, Spain (8417): wind speed: 26.06.2020 07:00:00 - 02.07.2020 07:00:00 (CEST)Jaen, Spain (8417): wind direction: 26.06.2020 07:00:00 - 02.07.2020 07:00:00 (CEST)Jaen, Spain (8417): reduced air pressure: 26.06.2020 07:00:00 - 02.07.2020 07:00:00 (CEST)Jaen, Spain (8417): visibility: 26.06.2020 07:00:00 - 02.07.2020 07:00:00 (CEST)Jaen, Spain (8417): precipitation: 26.06.2020 07:00:00 - 02.07.2020 07:00:00 (CEST)
Date & Time tt [°C] td [°C] ff [km/h] ff [kn] dd ppp [hPa] vv [km] rr [mm]
02.07.2020 07:00:00 20,7 5,5 5 3 S 1015,6 20 0,0
02.07.2020 06:00:00 21,3 6,4 4 2 SW 1014,7 20 0,0
02.07.2020 05:00:00 22,2 6,4 5 3 SE 1014,4 20 -
02.07.2020 04:00:00 24,0 5,3 4 2 W 1014,0 20 0,0
02.07.2020 03:00:00 24,1 5,9 5 3 S 1014,1 20 0,0
02.07.2020 02:00:00 24,3 4,6 2 1 WNW 1014,1 20 -
02.07.2020 01:00:00 25,2 4,3 5 3 WSW 1014,0 20 0,0
02.07.2020 00:00:00 28,8 4,3 8 4 N 1013,1 20 0,0
01.07.2020 23:00:00 28,5 4,7 15 8 WNW 1012,9 20 -
01.07.2020 22:00:00 29,8 3,7 8 4 WSW 1012,2 20 0,0
01.07.2020 21:00:00 31,9 2,9 11 6 W 1011,6 20 0,0
01.07.2020 20:00:00 33,8 3,5 16 9 WNW 1010,8 20 -
01.07.2020 19:00:00 34,6 4,2 15 8 WNW 1010,5 20 0,0
01.07.2020 18:00:00 35,2 6,5 16 9 W 1010,6 20 0,0
01.07.2020 17:00:00 34,6 8,4 13 7 WNW 1010,8 20 -
01.07.2020 16:00:00 34,1 8,0 16 9 NW 1011,2 20 0,0
01.07.2020 15:00:00 33,6 8,3 16 9 NW 1011,6 20 0,0
01.07.2020 14:00:00 32,5 9,9 18 10 NW 1012,3 20 -
01.07.2020 13:00:00 31,4 15,0 5 3 NNE 1012,8 20 0,0
01.07.2020 12:00:00 28,8 14,6 8 4 N 1013,8 20 0,0
01.07.2020 11:00:00 25,6 13,4 4 2 NNE 1014,4 20 -
01.07.2020 10:00:00 23,5 12,8 5 3 ENE 1015,0 20 0,0
01.07.2020 09:00:00 21,8 12,4 5 3 E 1015,2 20 0,0
01.07.2020 08:00:00 21,2 13,6 4 2 E 1014,8 20 -
01.07.2020 07:00:00 20,0 13,7 2 1 SSW 1014,6 20 0,0
01.07.2020 06:00:00 20,8 13,5 4 2 W 1013,8 20 0,0
01.07.2020 05:00:00 22,2 14,1 4 2 W 1013,4 20 -
01.07.2020 04:00:00 22,6 14,2 11 6 WSW 1013,3 20 0,0
01.07.2020 03:00:00 24,4 14,5 13 7 WNW 1012,7 20 0,0
01.07.2020 02:00:00 25,6 12,8 4 2 WSW 1012,4 20 -
01.07.2020 01:00:00 27,6 12,8 2 1 W 1011,8 20 0,0
01.07.2020 00:00:00 28,2 14,1 11 6 WSW 1011,1 20 0,0
30.06.2020 23:00:00 29,7 11,2 18 10 W 1010,4 20 -
30.06.2020 22:00:00 31,1 9,9 13 7 W 1009,6 20 0,0
30.06.2020 21:00:00 33,5 8,9 13 7 W 1008,5 20 0,0
30.06.2020 20:00:00 35,2 8,9 18 10 NW 1007,7 20 -
30.06.2020 19:00:00 36,0 8,7 18 10 WNW 1007,4 20 0,0
30.06.2020 18:00:00 36,3 9,0 21 11 NW 1007,8 20 0,0
30.06.2020 17:00:00 35,9 9,4 22 12 NW 1007,9 20 -
30.06.2020 16:00:00 35,8 10,1 21 11 NW 1008,3 20 0,0
30.06.2020 15:00:00 34,9 10,0 13 7 NW 1009,2 20 0,0
30.06.2020 14:00:00 34,7 9,2 9 5 N 1009,8 20 -
30.06.2020 13:00:00 32,8 8,3 8 4 N 1010,5 20 0,0
30.06.2020 12:00:00 32,2 8,4 8 4 N 1010,7 20 0,0
30.06.2020 11:00:00 30,1 9,0 5 3 NNE 1011,2 20 -
30.06.2020 10:00:00 27,3 9,6 4 2 NNE 1012,0 20 0,0
30.06.2020 09:00:00 25,2 9,9 4 2 N 1012,4 19 0,0
30.06.2020 08:00:00 22,8 9,6 2 1 SE 1012,6 20 -
30.06.2020 07:00:00 23,2 7,7 2 1 W 1012,6 20 0,0
30.06.2020 06:00:00 23,8 7,4 4 2 SSW 1012,5 20 0,0
30.06.2020 05:00:00 25,0 7,2 2 1 SSW 1012,2 20 -
30.06.2020 04:00:00 26,0 6,1 4 2 S 1011,9 20 0,0
30.06.2020 03:00:00 28,1 6,8 5 3 SW 1011,6 20 0,0
30.06.2020 02:00:00 28,0 5,5 8 4 S 1011,5 16 -
30.06.2020 01:00:00 30,7 5,9 2 1 W 1011,2 20 0,0
30.06.2020 00:00:00 31,8 5,3 9 5 WSW 1011,1 20 0,0
29.06.2020 23:00:00 32,2 4,9 11 6 WSW 1010,7 20 -
29.06.2020 22:00:00 32,3 10,3 9 5 W 1010,2 20 0,0
29.06.2020 21:00:00 34,8 11,2 9 5 WNW 1009,2 20 0,0
29.06.2020 20:00:00 36,2 10,4 13 7 NW 1008,7 20 -
29.06.2020 19:00:00 37,4 10,7 13 7 NW 1008,6 20 0,0
29.06.2020 18:00:00 37,7 9,3 13 7 NNW 1009,0 20 0,0
29.06.2020 17:00:00 37,6 10,0 5 3 ENE 1009,6 20 -
29.06.2020 16:00:00 37,6 10,8 5 3 N 1010,1 20 0,0
29.06.2020 15:00:00 36,2 11,1 9 5 N 1011,3 20 0,0
29.06.2020 14:00:00 35,3 10,4 8 4 N 1012,3 20 -
29.06.2020 13:00:00 33,7 11,5 4 2 N 1013,2 20 0,0
29.06.2020 12:00:00 31,4 11,7 5 3 NE 1014,1 20 0,0
29.06.2020 11:00:00 29,1 11,2 9 5 E 1014,8 20 -
29.06.2020 10:00:00 27,1 10,3 5 3 NE 1015,3 20 0,0
29.06.2020 09:00:00 25,5 10,9 5 3 N 1015,6 20 0,0
29.06.2020 08:00:00 24,0 11,7 4 2 ESE 1015,9 20 -
29.06.2020 07:00:00 22,5 10,6 4 2 S 1016,0 20 0,0
29.06.2020 06:00:00 24,0 10,6 5 3 WSW 1015,1 20 0,0
29.06.2020 05:00:00 24,9 10,4 2 1 S 1014,7 20 -
29.06.2020 04:00:00 25,6 9,8 5 3 WSW 1014,6 20 0,0
29.06.2020 03:00:00 27,0 10,2 4 2 ESE 1014,5 20 0,0
29.06.2020 02:00:00 29,2 10,3 8 4 SW 1014,2 20 -
29.06.2020 01:00:00 29,6 8,6 8 4 WNW 1014,3 20 0,0
29.06.2020 00:00:00 30,2 8,0 11 6 WSW 1013,8 20 0,0
28.06.2020 23:00:00 29,9 7,1 11 6 W 1013,4 20 -
28.06.2020 22:00:00 30,7 7,8 9 5 WSW 1012,7 20 0,0
28.06.2020 21:00:00 33,4 8,1 - - - 1012,0 20 0,0
28.06.2020 20:00:00 35,0 8,7 - - - 1011,5 20 -
28.06.2020 19:00:00 35,6 9,2 - - - 1011,4 20 0,0
28.06.2020 18:00:00 35,9 9,4 - - - 1011,6 20 0,0
28.06.2020 17:00:00 36,0 10,9 - - - 1011,8 20 -
28.06.2020 16:00:00 35,2 10,9 - - - 1012,5 20 0,0
28.06.2020 15:00:00 34,7 11,8 - - - 1013,2 20 0,0
28.06.2020 14:00:00 33,4 12,4 - - - 1014,1 20 -
28.06.2020 13:00:00 31,3 12,6 - - - 1015,0 20 0,0
28.06.2020 12:00:00 30,0 12,9 5 3 NNE 1015,6 20 0,0
28.06.2020 11:00:00 28,4 12,7 5 3 NNE 1016,0 20 -
28.06.2020 10:00:00 26,5 12,5 5 3 NE 1016,3 20 0,0
28.06.2020 09:00:00 23,4 13,0 4 2 NNW 1016,7 20 0,0
28.06.2020 08:00:00 21,3 12,2 2 1 WNW 1017,1 20 -
28.06.2020 07:00:00 20,4 11,6 4 2 SSE 1016,9 20 0,0
28.06.2020 06:00:00 21,2 11,5 4 2 S 1016,5 20 0,0
28.06.2020 05:00:00 21,9 11,0 2 1 SSW 1016,3 20 -
28.06.2020 04:00:00 22,9 11,0 2 1 SW 1016,2 20 0,0
28.06.2020 03:00:00 24,5 10,7 2 1 W 1015,8 20 0,0
28.06.2020 02:00:00 26,2 11,9 13 7 WSW 1015,4 20 -
28.06.2020 01:00:00 26,9 9,3 13 7 W 1015,4 20 0,0
28.06.2020 00:00:00 27,5 8,4 11 6 W 1015,1 20 0,0
27.06.2020 23:00:00 28,2 7,4 8 4 WSW 1014,4 20 -
27.06.2020 22:00:00 28,5 8,2 9 5 WSW 1013,6 20 0,0
27.06.2020 21:00:00 30,6 8,3 9 5 W 1012,7 20 0,0
27.06.2020 20:00:00 32,0 7,6 11 6 NW 1012,6 20 -
27.06.2020 19:00:00 32,1 7,0 13 7 NW 1012,7 20 0,0
27.06.2020 18:00:00 31,8 8,1 11 6 NW 1013,3 20 0,0
27.06.2020 17:00:00 30,4 9,3 16 9 NW 1013,7 20 -
27.06.2020 16:00:00 30,5 6,4 15 8 NW 1014,0 20 0,0
27.06.2020 15:00:00 30,6 7,7 13 7 NW 1014,3 20 0,0
27.06.2020 14:00:00 29,0 8,6 13 7 NNW 1015,1 20 -
27.06.2020 13:00:00 28,1 11,2 9 5 N 1015,6 20 0,0
27.06.2020 12:00:00 25,9 12,4 5 3 NNW 1016,5 20 0,0
27.06.2020 11:00:00 23,4 11,4 8 4 NNE 1016,9 20 -
27.06.2020 10:00:00 21,3 10,7 4 2 NE 1017,4 20 0,0
27.06.2020 09:00:00 20,4 11,1 4 2 E 1017,2 20 0,0
27.06.2020 08:00:00 18,4 10,5 2 1 E 1017,6 20 -
27.06.2020 07:00:00 17,4 10,3 4 2 W 1017,5 19 0,0
27.06.2020 06:00:00 18,3 9,9 4 2 S 1017,0 18 0,0
27.06.2020 05:00:00 19,2 10,2 2 1 SW 1016,6 20 -
27.06.2020 04:00:00 20,9 9,8 4 2 WSW 1016,1 11 0,0
27.06.2020 03:00:00 22,5 10,0 11 6 W 1015,6 20 0,0
27.06.2020 02:00:00 23,2 10,6 15 8 W 1015,7 20 -
27.06.2020 01:00:00 23,6 11,3 16 9 W 1015,6 20 0,0
27.06.2020 00:00:00 24,6 9,7 15 8 W 1014,8 20 0,0
26.06.2020 23:00:00 25,0 7,2 9 5 SSW 1014,3 20 -
26.06.2020 22:00:00 25,2 7,8 4 2 NE 1013,4 20 0,0
26.06.2020 21:00:00 27,4 8,3 9 5 WNW 1012,8 20 0,0
26.06.2020 20:00:00 28,9 9,6 18 10 WNW 1012,0 20 -
26.06.2020 19:00:00 29,5 11,1 21 11 WNW 1011,7 20 0,0
26.06.2020 18:00:00 30,3 10,3 18 10 W 1011,9 20 0,0
26.06.2020 17:00:00 29,8 12,2 16 9 WNW 1012,3 20 -
26.06.2020 16:00:00 28,9 13,9 18 10 WNW 1012,8 20 0,0
26.06.2020 15:00:00 28,1 14,7 21 11 NW 1013,1 20 0,0
26.06.2020 14:00:00 26,6 15,9 21 11 NW 1013,7 20 -
26.06.2020 13:00:00 26,0 16,8 13 7 NNW 1014,0 20 0,0
26.06.2020 12:00:00 25,8 16,9 8 4 N 1014,3 20 0,0
26.06.2020 11:00:00 23,7 16,7 8 4 NNW 1014,9 20 -
26.06.2020 10:00:00 22,2 16,7 8 4 NNW 1015,3 20 0,0
26.06.2020 09:00:00 20,7 16,1 5 3 ESE 1015,6 20 0,0
26.06.2020 08:00:00 19,2 15,9 2 1 SE 1015,8 20 -
26.06.2020 07:00:00 18,8 15,3 2 1 WSW 1015,9 20 0,0

tt = temperature
td = dewpoint
ff = wind speed
dd = wind direction
ppp = reduced air pressure
vv = visibility
rr = precipitation

Next stations